USA 486 (62757 NORAD) Tracking and Keplerian Element Data

This shows tracking and keplerian element data for the satellite.

Feedback or suggestion? Click here.




ElementValue
Catalog62757
NameUSA 486
Epoch Orbit183
Epoch Day32.79178592
Epoch Year2025
RAAN268.1165
Inclination43.0072
Eccentricity0.0002384
Argument of Perigee245.2221
Mean Anonmoly114.8404
Mean Motion15.86320291
Decay Rate0.00282307
L11 62757U 25014Y 25032.79178592 .00282307 00000+0 10587-2 0 9993
L22 62757 43.0072 268.1165 0002384 245.2221 114.8404 15.86320291 1830



Live tracking and technical data element details for USA 486 (NORAD 62757). USA 486 can be tracked NOW for your location showing map with azimuth and elevation plus other details from your city location.







IsCatalogInMostPopularTable: catalog: 62757, numindb: 202
Update: records affected: 1



GetName: 62757 USA 486

Hit Count: updated at: Mon, 17 Nov 2025 07:53:17 GMT